Location: Holton (historical)
(33.9472°N, 118.4440°W)
Time: 12:38:11
(UTC+00:00)

Cosmos 1939 Rocket - Pass Details

Date: 03 August 2024
Orbit: 511 x 551 km, 97.5° (Epoch: 15 September)

Event Time Altitude Azimuth Distance (km) Brightness Sun altitude
Rises 12:27:31 0° 10° (N) 2,633 6.9 -8.3°
Reaches altitude 10° 12:29:36 10° 10° (N) 1,746 5.9 -8.0°
Maximum altitude 12:33:22 85° 282° (WNW) 525 2.7 -7.3°
Drops below altitude 10° 12:37:09 10° 194° (SSW) 1,753 5.0 -6.6°
Sets 12:39:15 0° 194° (SSW) 2,645 5.9 -6.2°
